Home > Weather > Formosa > Past weeks

Flag for Argentina Past Weather in Formosa, Formosa, Argentina — Yesterday and Last 2 Weeks

Now
63 °F

Clear.


Feels Like: 63 °F
Forecast: 59 / 66 °F
Wind: 6 mph from West

Location: Formosa Aerodrome

Current Time: May 27, 2016 at 1:51:25 AM

Latest Report: May 27, 2016 at 1:00 AM


Visibility: 10 mi

Pressure: 30.09 "Hg

Humidity: 94%

Dew Point: 61 °F

Location of FormosaLocation

Past Weather in Formosa — Graph

°F

Formosa Temperature Yesterday

Maximum temperature yesterday: 72 °F (at 1:00 PM)
Minimum temperature yesterday: 61 °F (at 4:00 AM)
Average temperature yesterday: 65 °F

High & Low Weather Summary for the Past Weeks

 TemperatureHumidityPressure
High79 °F (May 15, 11:00 AM)100% (May 12, 12:00 AM)30.42 "Hg (May 12, 12:00 AM)
Low45 °F (May 17, 3:00 PM)44% (May 16, 8:00 AM)29.77 "Hg (May 15, 4:00 AM)
Average60 °F83%30.12 "Hg
* Reported May 12 12:00 AM — May 27 12:00 AM, Formosa, Weather by CustomWeather, © 2016

Note: Actual official high and low records may vary slightly from our data, if they occured in-between our weather recording intervals... More about our weather records

Advertising

Formosa Weather History for the Previous 24 Hours

Scroll right to see more
 ConditionsComfort  
Time TempWeatherWind HumidityBarometerVisibility
12:00 AM
Fri, May 27
64 °FClear.5 mph88%30.09 "Hg10 mi
11:00 PM
Thu, May 26
64 °FClear.5 mph88%30.09 "Hg10 mi
10:00 PM64 °FClear.8 mph88%30.09 "Hg10 mi
9:00 PM64 °FPassing clouds.10 mph88%30.09 "HgN/A
8:00 PM66 °FPassing clouds.9 mph83%30.09 "HgN/A
7:00 PM61 °FPassing clouds.8 mph72%30.07 "HgN/A
6:00 PM68 °FPartly cloudy.7 mph83%30.07 "HgN/A
5:00 PM68 °FMore clouds than sun.6 mph83%30.07 "HgN/A
4:00 PM68 °FMostly cloudy.8 mph78%30.07 "HgN/A
3:00 PM70 °FMostly cloudy.13 mph73%30.07 "HgN/A
2:00 PM70 °FScattered clouds.8 mph83%30.07 "HgN/A
1:00 PM72 °FScattered clouds.9 mph73%30.07 "HgN/A
12:00 PM70 °FScattered clouds.9 mph73%30.09 "HgN/A
11:00 AM68 °FScattered clouds.8 mph78%30.09 "HgN/A
10:00 AM68 °FSunny.8 mph83%30.09 "Hg10 mi
9:00 AM64 °FPassing clouds.3 mph94%30.07 "HgN/A
8:00 AM63 °FScattered clouds.6 mph94%30.07 "HgN/A
7:00 AM63 °FLight rain. Scattered clouds.7 mph94%30.07 "HgN/A
6:00 AM63 °FPassing clouds.5 mph94%30.07 "HgN/A
5:00 AM63 °FPassing clouds.6 mph94%30.04 "HgN/A
4:00 AM61 °FPassing clouds.5 mph100%30.04 "HgN/A
3:00 AM63 °FPassing clouds.5 mph94%30.04 "HgN/A
2:00 AM63 °FPassing clouds.2 mph94%30.07 "HgN/A
1:00 AM63 °FPassing clouds.3 mph94%30.07 "HgN/A
Weather by CustomWeather, © 2016

See weather overviewHow to use our weather pages